Location: Unspecified
(64.9000°N, 0.0000°E)
Time: 08:49:52
(UTC+00:00)

Transit 2A Rocket - Pass Details

Date: 20 June 2019
Orbit: 591 x 913 km, 66.7° (Epoch: 24 August)

Event Time Altitude Azimuth Distance (km) Brightness Sun altitude
Rises 18:48:12 0° 305° (NW) 3,419 9.9 16.4°
Reaches altitude 10° 18:50:58 10° 297° (WNW) 2,432 10.3 16.1°
Maximum altitude 18:55:53 33° 235° (SW) 1,291 6.8 15.6°
Drops below altitude 10° 19:00:25 10° 173° (S) 2,229 7.2 15.2°
Sets 19:02:50 0° 163° (SSE) 3,092 7.8 14.9°
